Time,TemperatureF,DewpointF,PressureIn,WindDirection,WindDirectionDegrees,WindSpeedMPH,WindSpeedGustMPH,Humidity,HourlyPrecipIn,Conditions,Clouds,dailyrainin,SoftwareType,DateUTC
2017-06-22 00:06:00,58.0,50.0,29.72,South,180,0.0,-999.0,75,0.00,,,0.00,,2017-06-22 07:06:00,
2017-06-22 00:11:00,58.2,50.0,29.72,West,270,1.0,-999.0,75,0.00,,,0.00,,2017-06-22 07:11:00,
2017-06-22 00:17:00,58.2,50.0,29.72,WSW,248,3.0,-999.0,75,0.00,,,0.00,,2017-06-22 07:17:00,
2017-06-22 00:22:00,58.0,50.0,29.72,WSW,248,2.0,-999.0,75,0.00,,,0.00,,2017-06-22 07:22:00,
2017-06-22 00:28:00,58.0,50.0,29.72,East,90,1.0,-999.0,75,0.00,,,0.00,,2017-06-22 07:28:00,
2017-06-22 00:33:00,58.0,50.0,29.72,NNE,23,3.0,-999.0,75,0.00,,,0.00,,2017-06-22 07:33:00,
2017-06-22 00:39:00,58.4,50.0,29.73,SSW,203,0.0,-999.0,75,0.00,,,0.00,,2017-06-22 07:39:00,
2017-06-22 00:45:00,58.4,50.0,29.72,WSW,248,2.0,-999.0,75,0.00,,,0.00,,2017-06-22 07:45:00,
2017-06-22 00:50:00,58.4,50.0,29.72,South,180,2.0,-999.0,75,0.00,,,0.00,,2017-06-22 07:50:00,
2017-06-22 00:56:00,58.4,50.0,29.72,SSW,203,0.0,-999.0,75,0.00,,,0.00,,2017-06-22 07:56:00,
2017-06-22 01:01:00,58.5,51.0,29.71,SE,135,0.0,-999.0,75,0.00,,,0.00,,2017-06-22 08:01:00,
2017-06-22 01:07:00,58.4,51.0,29.72,SSW,203,1.0,-999.0,76,0.00,,,0.00,,2017-06-22 08:07:00,
2017-06-22 01:12:00,58.8,51.0,29.72,SW,225,2.0,-999.0,76,0.00,,,0.00,,2017-06-22 08:12:00,
2017-06-22 01:18:00,58.8,51.0,29.72,SSW,203,2.0,-999.0,76,0.00,,,0.00,,2017-06-22 08:18:00,
2017-06-22 01:23:00,58.5,51.0,29.72,West,270,1.0,-999.0,76,0.00,,,0.00,,2017-06-22 08:23:00,
2017-06-22 01:29:00,58.5,51.0,29.71,SSE,158,0.0,-999.0,76,0.00,,,0.00,,2017-06-22 08:29:00,
2017-06-22 01:34:00,58.5,51.0,29.71,West,270,2.0,-999.0,76,0.00,,,0.00,,2017-06-22 08:34:00,
2017-06-22 01:40:00,58.5,51.0,29.72,SSE,158,0.0,-999.0,76,0.00,,,0.00,,2017-06-22 08:40:00,
2017-06-22 01:46:00,58.5,51.0,29.72,ESE,113,0.0,-999.0,76,0.00,,,0.00,,2017-06-22 08:46:00,
2017-06-22 01:52:00,58.4,51.0,29.71,SW,225,0.0,-999.0,76,0.00,,,0.00,,2017-06-22 08:52:00,
2017-06-22 01:57:00,58.4,51.0,29.72,WSW,248,1.0,-999.0,76,0.00,,,0.00,,2017-06-22 08:57:00,
2017-06-22 02:03:00,58.2,51.0,29.72,SSW,203,2.0,-999.0,78,0.00,,,0.00,,2017-06-22 09:03:00,
2017-06-22 02:08:00,58.4,51.0,29.71,WSW,248,2.0,-999.0,78,0.00,,,0.00,,2017-06-22 09:08:00,
2017-06-22 02:14:00,58.4,51.0,29.71,East,90,0.0,-999.0,78,0.00,,,0.00,,2017-06-22 09:14:00,
2017-06-22 02:19:00,58.4,51.0,29.71,WSW,248,0.0,-999.0,78,0.00,,,0.00,,2017-06-22 09:19:00,
2017-06-22 02:25:00,58.2,51.0,29.71,NE,45,1.0,-999.0,78,0.00,,,0.00,,2017-06-22 09:25:00,
2017-06-22 02:31:00,58.5,51.0,29.70,SSE,158,2.0,-999.0,78,0.00,,,0.00,,2017-06-22 09:31:00,
2017-06-22 02:37:00,58.4,51.0,29.70,ESE,113,2.0,-999.0,78,0.00,,,0.00,,2017-06-22 09:37:00,
2017-06-22 02:42:00,58.2,51.0,29.71,SW,225,0.0,-999.0,78,0.00,,,0.00,,2017-06-22 09:42:00,
2017-06-22 02:48:00,58.0,51.0,29.70,SSE,158,0.0,-999.0,78,0.00,,,0.00,,2017-06-22 09:48:00,
2017-06-22 02:53:00,58.0,51.0,29.70,SSE,158,0.0,-999.0,78,0.00,,,0.00,,2017-06-22 09:53:00,
2017-06-22 02:59:00,58.0,51.0,29.70,South,180,0.0,-999.0,78,0.00,,,0.00,,2017-06-22 09:59:00,
2017-06-22 03:04:00,57.8,51.0,29.70,SSE,158,0.0,-999.0,78,0.00,,,0.00,,2017-06-22 10:04:00,
2017-06-22 03:11:00,58.0,51.0,29.69,NNE,23,1.0,-999.0,79,0.00,,,0.00,,2017-06-22 10:11:00,
2017-06-22 03:16:00,57.8,51.0,29.70,NE,45,1.0,-999.0,79,0.00,,,0.00,,2017-06-22 10:16:00,
2017-06-22 03:22:00,57.8,51.0,29.70,SW,225,0.0,-999.0,79,0.00,,,0.00,,2017-06-22 10:22:00,
2017-06-22 03:27:00,57.8,51.0,29.70,ENE,68,0.0,-999.0,79,0.00,,,0.00,,2017-06-22 10:27:00,
2017-06-22 03:33:00,57.8,51.0,29.70,SSW,203,0.0,-999.0,79,0.00,,,0.00,,2017-06-22 10:33:00,
2017-06-22 03:38:00,57.8,51.0,29.70,SW,225,0.0,-999.0,79,0.00,,,0.00,,2017-06-22 10:38:00,
2017-06-22 03:44:00,57.8,51.0,29.70,ESE,113,0.0,-999.0,79,0.00,,,0.00,,2017-06-22 10:44:00,
2017-06-22 03:50:00,57.8,51.0,29.70,SSW,203,0.0,-999.0,80,0.00,,,0.00,,2017-06-22 10:50:00,
2017-06-22 03:55:00,57.7,51.0,29.71,East,90,0.0,-999.0,80,0.00,,,0.00,,2017-06-22 10:55:00,
2017-06-22 04:01:00,57.7,51.0,29.71,East,90,0.0,-999.0,80,0.00,,,0.00,,2017-06-22 11:01:00,
2017-06-22 04:06:00,57.7,51.0,29.70,SSE,158,0.0,-999.0,80,0.00,,,0.00,,2017-06-22 11:06:00,
2017-06-22 04:12:00,57.7,51.0,29.70,SSE,158,0.0,-999.0,80,0.00,,,0.00,,2017-06-22 11:12:00,
2017-06-22 04:17:00,57.7,51.0,29.71,SSE,158,0.0,-999.0,80,0.00,,,0.00,,2017-06-22 11:17:00,
2017-06-22 04:22:00,57.5,51.0,29.71,SSE,158,0.0,-999.0,80,0.00,,,0.00,,2017-06-22 11:22:00,
2017-06-22 04:28:00,57.5,51.0,29.71,WSW,248,0.0,-999.0,80,0.00,,,0.00,,2017-06-22 11:28:00,
2017-06-22 04:33:00,57.2,51.0,29.70,NE,45,0.0,-999.0,81,0.00,,,0.00,,2017-06-22 11:33:00,
2017-06-22 04:39:00,57.2,51.0,29.71,SSW,203,0.0,-999.0,81,0.00,,,0.00,,2017-06-22 11:39:00,
2017-06-22 04:44:00,57.2,51.0,29.71,NE,45,0.0,-999.0,81,0.00,,,0.00,,2017-06-22 11:44:00,
2017-06-22 04:50:00,57.2,51.0,29.71,SE,135,0.0,-999.0,81,0.00,,,0.00,,2017-06-22 11:50:00,
2017-06-22 04:55:00,57.2,51.0,29.71,SSW,203,0.0,-999.0,81,0.00,,,0.00,,2017-06-22 11:55:00,
2017-06-22 05:01:00,57.2,51.0,29.71,West,270,0.0,-999.0,81,0.00,,,0.00,,2017-06-22 12:01:00,
2017-06-22 05:07:00,57.2,51.0,29.71,SE,135,0.0,-999.0,81,0.00,,,0.00,,2017-06-22 12:07:00,
2017-06-22 05:12:00,57.2,51.0,29.71,NW,315,0.0,-999.0,81,0.00,,,0.00,,2017-06-22 12:12:00,
2017-06-22 05:18:00,56.9,51.0,29.71,North,0,0.0,-999.0,83,0.00,,,0.00,,2017-06-22 12:18:00,
2017-06-22 05:23:00,57.2,52.0,29.71,SW,225,1.0,-999.0,83,0.00,,,0.00,,2017-06-22 12:23:00,
2017-06-22 05:29:00,57.3,52.0,29.71,SE,135,0.0,-999.0,83,0.00,,,0.00,,2017-06-22 12:29:00,
2017-06-22 05:34:00,57.3,52.0,29.71,SW,225,0.0,-999.0,83,0.00,,,0.00,,2017-06-22 12:34:00,
2017-06-22 05:41:00,57.2,52.0,29.71,West,270,0.0,-999.0,83,0.00,,,0.00,,2017-06-22 12:41:00,
2017-06-22 05:46:00,57.2,52.0,29.72,ESE,113,1.0,-999.0,83,0.00,,,0.00,,2017-06-22 12:46:00,
2017-06-22 05:52:00,57.5,52.0,29.72,SSW,203,0.0,-999.0,83,0.00,,,0.00,,2017-06-22 12:52:00,
2017-06-22 05:57:00,57.7,52.0,29.72,South,180,0.0,-999.0,83,0.00,,,0.00,,2017-06-22 12:57:00,
2017-06-22 06:03:00,57.7,52.0,29.72,ESE,113,0.0,-999.0,81,0.00,,,0.00,,2017-06-22 13:03:00,
2017-06-22 06:08:00,57.7,52.0,29.73,SW,225,0.0,-999.0,81,0.00,,,0.00,,2017-06-22 13:08:00,
2017-06-22 06:14:00,58.0,52.0,29.73,SW,225,0.0,-999.0,83,0.00,,,0.00,,2017-06-22 13:14:00,
2017-06-22 06:19:00,59.4,52.0,29.73,SSW,203,0.0,-999.0,79,0.00,,,0.00,,2017-06-22 13:19:00,
2017-06-22 06:25:00,60.0,53.0,29.73,SSE,158,0.0,-999.0,78,0.00,,,0.00,,2017-06-22 13:25:00,
2017-06-22 06:30:00,60.7,53.0,29.73,ESE,113,0.0,-999.0,75,0.00,,,0.00,,2017-06-22 13:30:00,
2017-06-22 06:36:00,61.7,53.0,29.73,ESE,113,0.0,-999.0,74,0.00,,,0.00,,2017-06-22 13:36:00,
2017-06-22 06:42:00,62.7,53.0,29.73,WNW,293,0.0,-999.0,71,0.00,,,0.00,,2017-06-22 13:42:00,
2017-06-22 06:47:00,62.4,53.0,29.74,NE,45,0.0,-999.0,71,0.00,,,0.00,,2017-06-22 13:47:00,
2017-06-22 06:53:00,63.0,53.0,29.74,ENE,68,1.0,-999.0,71,0.00,,,0.00,,2017-06-22 13:53:00,
2017-06-22 06:58:00,63.2,54.0,29.74,ESE,113,1.0,-999.0,71,0.00,,,0.00,,2017-06-22 13:58:00,
2017-06-22 07:04:00,64.4,54.0,29.74,ESE,113,0.0,-999.0,69,0.00,,,0.00,,2017-06-22 14:04:00,
2017-06-22 07:09:00,65.6,54.0,29.75,ESE,113,2.0,-999.0,66,0.00,,,0.00,,2017-06-22 14:09:00,
2017-06-22 07:15:00,64.9,54.0,29.75,SSE,158,0.0,-999.0,69,0.00,,,0.00,,2017-06-22 14:15:00,
2017-06-22 07:20:00,65.9,54.0,29.75,SE,135,0.0,-999.0,65,0.00,,,0.00,,2017-06-22 14:20:00,
2017-06-22 07:26:00,66.9,54.0,29.75,ESE,113,2.0,-999.0,63,0.00,,,0.00,,2017-06-22 14:26:00,
2017-06-22 07:32:00,67.6,54.0,29.75,ESE,113,2.0,-999.0,63,0.00,,,0.00,,2017-06-22 14:32:00,
2017-06-22 07:37:00,68.6,55.0,29.76,East,90,2.0,-999.0,61,0.00,,,0.00,,2017-06-22 14:37:00,
2017-06-22 07:43:00,68.4,54.0,29.76,East,90,1.0,-999.0,61,0.00,,,0.00,,2017-06-22 14:43:00,
2017-06-22 07:45:00,68.4,54.0,29.76,ESE,113,2.0,-999.0,61,0.00,,,0.00,,2017-06-22 14:45:00,
2017-06-22 07:50:00,68.4,54.0,29.76,ESE,113,2.0,-999.0,61,0.00,,,0.00,,2017-06-22 14:50:00,
2017-06-22 07:56:00,69.3,55.0,29.76,South,180,2.0,-999.0,61,0.00,,,0.00,,2017-06-22 14:56:00,
2017-06-22 08:01:00,70.9,55.0,29.75,ESE,113,1.0,-999.0,58,0.00,,,0.00,,2017-06-22 15:01:00,
2017-06-22 08:07:00,71.9,55.0,29.75,NE,45,2.0,-999.0,56,0.00,,,0.00,,2017-06-22 15:07:00,
2017-06-22 08:08:00,71.8,55.0,29.75,ESE,113,3.0,-999.0,56,0.00,,,0.00,,2017-06-22 15:08:00,
2017-06-22 08:13:00,71.9,55.0,29.76,ESE,113,1.0,-999.0,56,0.00,,,0.00,,2017-06-22 15:13:00,
2017-06-22 08:19:00,72.8,56.0,29.76,ENE,68,3.0,-999.0,55,0.00,,,0.00,,2017-06-22 15:19:00,
2017-06-22 08:25:00,72.8,56.0,29.76,ESE,113,2.0,-999.0,55,0.00,,,0.00,,2017-06-22 15:25:00,
2017-06-22 08:30:00,73.8,56.0,29.76,NE,45,2.0,-999.0,54,0.00,,,0.00,,2017-06-22 15:30:00,
2017-06-22 08:35:00,75.1,56.0,29.76,NE,45,2.0,-999.0,51,0.00,,,0.00,,2017-06-22 15:35:00,
2017-06-22 08:41:00,74.4,56.0,29.76,SSE,158,2.0,-999.0,54,0.00,,,0.00,,2017-06-22 15:41:00,
2017-06-22 08:46:00,74.6,56.0,29.76,SSE,158,2.0,-999.0,54,0.00,,,0.00,,2017-06-22 15:46:00,
2017-06-22 08:52:00,75.6,56.0,29.76,ESE,113,3.0,-999.0,50,0.00,,,0.00,,2017-06-22 15:52:00,
2017-06-22 08:57:00,75.9,56.0,29.76,ESE,113,2.0,-999.0,50,0.00,,,0.00,,2017-06-22 15:57:00,
2017-06-22 09:03:00,75.9,56.0,29.76,SE,135,3.0,-999.0,50,0.00,,,0.00,,2017-06-22 16:03:00,
2017-06-22 09:08:00,76.3,56.0,29.76,ESE,113,4.0,-999.0,50,0.00,,,0.00,,2017-06-22 16:08:00,
2017-06-22 09:14:00,75.9,57.0,29.76,SSE,158,3.0,-999.0,51,0.00,,,0.00,,2017-06-22 16:14:00,
2017-06-22 09:19:00,76.8,56.0,29.77,South,180,2.0,-999.0,50,0.00,,,0.00,,2017-06-22 16:19:00,
2017-06-22 09:25:00,77.6,57.0,29.77,SSE,158,4.0,-999.0,49,0.00,,,0.00,,2017-06-22 16:25:00,
2017-06-22 09:30:00,78.8,56.0,29.77,East,90,3.0,-999.0,46,0.00,,,0.00,,2017-06-22 16:30:00,
2017-06-22 09:36:00,78.5,57.0,29.77,ESE,113,3.0,-999.0,49,0.00,,,0.00,,2017-06-22 16:36:00,
2017-06-22 09:41:00,78.3,57.0,29.77,NNE,23,1.0,-999.0,49,0.00,,,0.00,,2017-06-22 16:41:00,
2017-06-22 09:47:00,80.3,57.0,29.76,ENE,68,4.0,-999.0,45,0.00,,,0.00,,2017-06-22 16:47:00,
2017-06-22 09:52:00,79.3,58.0,29.76,SSE,158,2.0,-999.0,49,0.00,,,0.00,,2017-06-22 16:52:00,
2017-06-22 09:58:00,80.7,58.0,29.76,ESE,113,4.0,-999.0,45,0.00,,,0.00,,2017-06-22 16:58:00,
2017-06-22 10:04:00,81.9,58.0,29.76,NE,45,5.0,-999.0,45,0.00,,,0.00,,2017-06-22 17:04:00,
2017-06-22 10:09:00,81.9,58.0,29.76,NE,45,4.0,-999.0,45,0.00,,,0.00,,2017-06-22 17:09:00,
2017-06-22 10:15:00,82.3,58.0,29.76,NE,45,3.0,-999.0,45,0.00,,,0.00,,2017-06-22 17:15:00,
2017-06-22 10:20:00,82.8,58.0,29.76,ESE,113,4.0,-999.0,44,0.00,,,0.00,,2017-06-22 17:20:00,
2017-06-22 10:26:00,82.1,58.0,29.76,ESE,113,4.0,-999.0,44,0.00,,,0.00,,2017-06-22 17:26:00,
2017-06-22 10:31:00,82.1,58.0,29.76,East,90,4.0,-999.0,45,0.00,,,0.00,,2017-06-22 17:31:00,
2017-06-22 10:37:00,82.8,58.0,29.76,ESE,113,4.0,-999.0,44,0.00,,,0.00,,2017-06-22 17:37:00,
2017-06-22 10:42:00,82.8,58.0,29.76,ESE,113,2.0,-999.0,44,0.00,,,0.00,,2017-06-22 17:42:00,
2017-06-22 10:48:00,82.8,59.0,29.76,NW,315,2.0,-999.0,45,0.00,,,0.00,,2017-06-22 17:48:00,
2017-06-22 10:53:00,83.5,58.0,29.76,East,90,2.0,-999.0,43,0.00,,,0.00,,2017-06-22 17:53:00,
2017-06-22 10:59:00,84.6,59.0,29.76,SW,225,3.0,-999.0,43,0.00,,,0.00,,2017-06-22 17:59:00,
2017-06-22 11:04:00,84.2,59.0,29.76,NW,315,5.0,-999.0,43,0.00,,,0.00,,2017-06-22 18:04:00,
2017-06-22 11:10:00,83.0,58.0,29.77,NNW,338,2.0,-999.0,44,0.00,,,0.00,,2017-06-22 18:10:00,
2017-06-22 11:15:00,84.2,59.0,29.76,SW,225,5.0,-999.0,43,0.00,,,0.00,,2017-06-22 18:15:00,
2017-06-22 11:21:00,83.5,59.0,29.76,West,270,2.0,-999.0,44,0.00,,,0.00,,2017-06-22 18:21:00,
2017-06-22 11:26:00,84.2,59.0,29.76,WNW,293,4.0,-999.0,43,0.00,,,0.00,,2017-06-22 18:26:00,
2017-06-22 11:32:00,84.6,59.0,29.76,West,270,2.0,-999.0,43,0.00,,,0.00,,2017-06-22 18:32:00,
2017-06-22 11:38:00,84.6,59.0,29.76,SW,225,3.0,-999.0,41,0.00,,,0.00,,2017-06-22 18:38:00,
2017-06-22 11:43:00,83.6,58.0,29.76,North,0,4.0,-999.0,43,0.00,,,0.00,,2017-06-22 18:43:00,
2017-06-22 11:49:00,83.6,58.0,29.76,South,180,2.0,-999.0,43,0.00,,,0.00,,2017-06-22 18:49:00,
2017-06-22 11:55:00,85.5,59.0,29.76,SSW,203,5.0,-999.0,40,0.00,,,0.00,,2017-06-22 18:55:00,
2017-06-22 12:00:00,83.5,58.0,29.76,North,0,5.0,-999.0,43,0.00,,,0.00,,2017-06-22 19:00:00,
2017-06-22 12:06:00,83.5,58.0,29.76,West,270,2.0,-999.0,43,0.00,,,0.00,,2017-06-22 19:06:00,
2017-06-22 12:12:00,82.8,58.0,29.76,SW,225,4.0,-999.0,43,0.00,,,0.00,,2017-06-22 19:12:00,
2017-06-22 12:17:00,82.3,58.0,29.76,SSW,203,3.0,-999.0,44,0.00,,,0.00,,2017-06-22 19:17:00,
2017-06-22 12:20:00,81.9,57.0,29.77,West,270,6.0,-999.0,44,0.00,,,0.00,,2017-06-22 19:20:00,
2017-06-22 12:25:00,81.0,57.0,29.77,SSW,203,4.0,-999.0,45,0.00,,,0.00,,2017-06-22 19:25:00,
2017-06-22 12:30:00,80.7,57.0,29.77,WSW,248,5.0,-999.0,45,0.00,,,0.00,,2017-06-22 19:30:00,
2017-06-22 12:36:00,79.9,57.0,29.77,West,270,8.0,-999.0,45,0.00,,,0.00,,2017-06-22 19:36:00,
2017-06-22 12:41:00,79.3,56.0,29.77,WNW,293,12.0,-999.0,45,0.00,,,0.00,,2017-06-22 19:41:00,
2017-06-22 12:47:00,79.0,57.0,29.77,NW,315,12.0,-999.0,46,0.00,,,0.00,,2017-06-22 19:47:00,
2017-06-22 12:53:00,78.4,57.0,29.77,South,180,6.0,-999.0,48,0.00,,,0.00,,2017-06-22 19:53:00,
2017-06-22 12:58:00,77.8,56.0,29.77,West,270,12.0,-999.0,48,0.00,,,0.00,,2017-06-22 19:58:00,
2017-06-22 13:04:00,77.4,56.0,29.77,West,270,8.0,-999.0,48,0.00,,,0.00,,2017-06-22 20:04:00,
2017-06-22 13:09:00,76.3,56.0,29.76,SW,225,6.0,-999.0,50,0.00,,,0.00,,2017-06-22 20:09:00,
2017-06-22 13:15:00,75.6,56.0,29.76,WSW,248,7.0,-999.0,50,0.00,,,0.00,,2017-06-22 20:15:00,
2017-06-22 13:20:00,74.6,55.0,29.76,West,270,6.0,-999.0,51,0.00,,,0.00,,2017-06-22 20:20:00,
2017-06-22 13:26:00,74.4,56.0,29.76,WNW,293,9.0,-999.0,53,0.00,,,0.00,,2017-06-22 20:26:00,
2017-06-22 13:32:00,74.0,55.0,29.76,WSW,248,9.0,-999.0,53,0.00,,,0.00,,2017-06-22 20:32:00,
2017-06-22 13:37:00,73.9,55.0,29.76,North,0,6.0,-999.0,53,0.00,,,0.00,,2017-06-22 20:37:00,
2017-06-22 13:43:00,73.4,55.0,29.76,NNW,338,5.0,-999.0,54,0.00,,,0.00,,2017-06-22 20:43:00,
2017-06-22 13:48:00,73.1,55.0,29.76,SW,225,9.0,-999.0,54,0.00,,,0.00,,2017-06-22 20:48:00,
2017-06-22 13:54:00,73.0,55.0,29.76,SW,225,10.0,-999.0,54,0.00,,,0.00,,2017-06-22 20:54:00,
2017-06-22 13:59:00,72.6,55.0,29.76,West,270,12.0,-999.0,55,0.00,,,0.00,,2017-06-22 20:59:00,
2017-06-22 14:05:00,72.8,55.0,29.76,North,0,7.0,-999.0,55,0.00,,,0.00,,2017-06-22 21:05:00,
2017-06-22 14:10:00,72.6,55.0,29.75,SW,225,8.0,-999.0,55,0.00,,,0.00,,2017-06-22 21:10:00,
2017-06-22 14:16:00,72.5,55.0,29.76,West,270,7.0,-999.0,55,0.00,,,0.00,,2017-06-22 21:16:00,
2017-06-22 14:21:00,71.9,54.0,29.76,SE,135,5.0,-999.0,55,0.00,,,0.00,,2017-06-22 21:21:00,
2017-06-22 14:27:00,71.4,54.0,29.75,East,90,7.0,-999.0,55,0.00,,,0.00,,2017-06-22 21:27:00,
2017-06-22 14:32:00,70.6,54.0,29.75,SW,225,12.0,-999.0,56,0.00,,,0.00,,2017-06-22 21:32:00,
2017-06-22 14:38:00,70.9,54.0,29.75,SSW,203,11.0,-999.0,56,0.00,,,0.00,,2017-06-22 21:38:00,
2017-06-22 14:43:00,70.9,54.0,29.76,West,270,13.0,-999.0,56,0.00,,,0.00,,2017-06-22 21:43:00,
2017-06-22 14:48:00,70.0,54.0,29.75,SSW,203,10.0,-999.0,58,0.00,,,0.00,,2017-06-22 21:48:00,
2017-06-22 14:54:00,69.8,54.0,29.76,SW,225,12.0,-999.0,59,0.00,,,0.00,,2017-06-22 21:54:00,
2017-06-22 14:59:00,69.6,54.0,29.76,WNW,293,10.0,-999.0,59,0.00,,,0.00,,2017-06-22 21:59:00,
2017-06-22 15:05:00,69.4,54.0,29.76,South,180,12.0,-999.0,59,0.00,,,0.00,,2017-06-22 22:05:00,
2017-06-22 15:10:00,69.0,54.0,29.76,West,270,10.0,-999.0,59,0.00,,,0.00,,2017-06-22 22:10:00,
2017-06-22 15:16:00,69.0,54.0,29.76,SSE,158,9.0,-999.0,60,0.00,,,0.00,,2017-06-22 22:16:00,
2017-06-22 15:21:00,68.4,54.0,29.76,NNW,338,13.0,-999.0,61,0.00,,,0.00,,2017-06-22 22:21:00,
2017-06-22 15:27:00,67.6,54.0,29.76,North,0,12.0,-999.0,61,0.00,,,0.00,,2017-06-22 22:27:00,
2017-06-22 15:33:00,67.8,54.0,29.76,West,270,12.0,-999.0,61,0.01,,,0.01,,2017-06-22 22:33:00,
2017-06-22 15:38:00,67.6,54.0,29.76,West,270,13.0,-999.0,61,0.01,,,0.01,,2017-06-22 22:38:00,
2017-06-22 15:44:00,67.5,54.0,29.76,South,180,14.0,-999.0,61,0.01,,,0.01,,2017-06-22 22:44:00,
2017-06-22 15:49:00,67.1,54.0,29.76,NW,315,11.0,-999.0,63,0.01,,,0.01,,2017-06-22 22:49:00,
2017-06-22 15:55:00,67.1,54.0,29.76,WSW,248,12.0,-999.0,63,0.01,,,0.01,,2017-06-22 22:55:00,
2017-06-22 16:01:00,66.6,54.0,29.76,NW,315,6.0,20.0,63,0.00,,,0.01,,2017-06-22 23:01:00,
2017-06-22 16:07:00,66.4,54.0,29.76,SSW,203,16.0,-999.0,65,0.00,,,0.01,,2017-06-22 23:07:00,
2017-06-22 16:12:00,65.9,53.0,29.76,SSW,203,10.0,-999.0,65,0.00,,,0.01,,2017-06-22 23:12:00,
2017-06-22 16:18:00,66.4,54.0,29.75,West,270,11.0,-999.0,65,0.00,,,0.01,,2017-06-22 23:18:00,
2017-06-22 16:23:00,65.6,54.0,29.76,East,90,15.0,-999.0,65,0.00,,,0.01,,2017-06-22 23:23:00,
2017-06-22 16:29:00,65.5,53.0,29.76,West,270,11.0,-999.0,65,0.00,,,0.01,,2017-06-22 23:29:00,
2017-06-22 16:34:00,65.0,53.0,29.77,West,270,11.0,-999.0,66,0.00,,,0.01,,2017-06-22 23:34:00,
2017-06-22 16:40:00,65.2,54.0,29.76,West,270,15.0,-999.0,66,0.00,,,0.01,,2017-06-22 23:40:00,
2017-06-22 16:45:00,65.6,54.0,29.76,SSE,158,9.0,-999.0,66,0.00,,,0.01,,2017-06-22 23:45:00,
2017-06-22 16:52:00,65.9,54.0,29.76,South,180,18.0,-999.0,65,0.00,,,0.01,,2017-06-22 23:52:00,
2017-06-22 16:57:00,65.5,53.0,29.76,WSW,248,9.0,-999.0,65,0.00,,,0.01,,2017-06-22 23:57:00,
2017-06-22 17:03:00,64.9,53.0,29.76,SSW,203,16.0,-999.0,66,0.00,,,0.01,,2017-06-23 00:03:00,
2017-06-22 17:08:00,64.4,54.0,29.77,WNW,293,13.0,-999.0,69,0.00,,,0.01,,2017-06-23 00:08:00,
2017-06-22 17:13:00,64.1,53.0,29.77,SE,135,15.0,-999.0,69,0.00,,,0.01,,2017-06-23 00:13:00,
2017-06-22 17:19:00,64.6,54.0,29.77,South,180,10.0,-999.0,69,0.00,,,0.01,,2017-06-23 00:19:00,
2017-06-22 17:25:00,64.1,54.0,29.77,West,270,12.0,-999.0,70,0.00,,,0.01,,2017-06-23 00:25:00,
2017-06-22 17:30:00,64.1,54.0,29.77,West,270,15.0,-999.0,70,0.00,,,0.01,,2017-06-23 00:30:00,
2017-06-22 17:36:00,64.6,54.0,29.77,WNW,293,11.0,-999.0,70,0.00,,,0.01,,2017-06-23 00:36:00,
2017-06-22 17:41:00,64.4,54.0,29.77,West,270,13.0,-999.0,70,0.00,,,0.01,,2017-06-23 00:41:00,
2017-06-22 17:46:00,63.9,54.0,29.77,North,0,9.0,21.0,70,0.00,,,0.01,,2017-06-23 00:46:00,
2017-06-22 17:52:00,63.9,54.0,29.77,West,270,8.0,-999.0,70,0.00,,,0.01,,2017-06-23 00:52:00,
2017-06-22 17:57:00,63.6,54.0,29.77,SSW,203,11.0,-999.0,71,0.00,,,0.01,,2017-06-23 00:57:00,
2017-06-22 18:03:00,63.6,54.0,29.77,WNW,293,9.0,-999.0,71,0.00,,,0.01,,2017-06-23 01:03:00,
2017-06-22 18:08:00,63.4,54.0,29.77,NNW,338,13.0,-999.0,73,0.00,,,0.01,,2017-06-23 01:08:00,
2017-06-22 18:14:00,63.6,54.0,29.77,SSW,203,17.0,-999.0,73,0.00,,,0.01,,2017-06-23 01:14:00,
2017-06-22 18:19:00,63.4,54.0,29.77,SSE,158,11.0,-999.0,73,0.00,,,0.01,,2017-06-23 01:19:00,
2017-06-22 18:24:00,63.4,54.0,29.77,SW,225,10.0,-999.0,73,0.00,,,0.01,,2017-06-23 01:24:00,
2017-06-22 18:31:00,63.0,54.0,29.78,SSW,203,14.0,-999.0,74,0.00,,,0.01,,2017-06-23 01:31:00,
2017-06-22 18:36:00,63.0,54.0,29.78,SW,225,5.0,18.0,74,0.00,,,0.01,,2017-06-23 01:36:00,
2017-06-22 18:42:00,62.5,54.0,29.78,SSE,158,10.0,-999.0,75,0.00,,,0.01,,2017-06-23 01:42:00,
2017-06-22 18:47:00,62.4,54.0,29.78,West,270,11.0,-999.0,75,0.00,,,0.01,,2017-06-23 01:47:00,
2017-06-22 18:52:00,61.7,54.0,29.78,West,270,7.0,18.0,76,0.00,,,0.01,,2017-06-23 01:52:00,
2017-06-22 18:58:00,61.3,54.0,29.78,WSW,248,6.0,-999.0,76,0.00,,,0.01,,2017-06-23 01:58:00,
2017-06-22 19:05:00,60.7,54.0,29.79,West,270,12.0,-999.0,79,0.00,,,0.01,,2017-06-23 02:05:00,
2017-06-22 19:10:00,60.7,54.0,29.79,SSE,158,8.0,-999.0,79,0.00,,,0.01,,2017-06-23 02:10:00,
2017-06-22 19:16:00,60.2,54.0,29.79,East,90,11.0,-999.0,80,0.00,,,0.01,,2017-06-23 02:16:00,
2017-06-22 19:22:00,59.7,53.0,29.79,West,270,11.0,-999.0,81,0.00,,,0.01,,2017-06-23 02:22:00,
2017-06-22 19:27:00,59.3,53.0,29.80,SW,225,9.0,-999.0,81,0.00,,,0.01,,2017-06-23 02:27:00,
2017-06-22 19:33:00,59.2,53.0,29.79,WSW,248,8.0,-999.0,81,0.00,,,0.01,,2017-06-23 02:33:00,
2017-06-22 19:38:00,59.2,53.0,29.80,ESE,113,9.0,-999.0,81,0.00,,,0.01,,2017-06-23 02:38:00,
2017-06-22 19:49:00,58.4,53.0,29.80,WSW,248,10.0,-999.0,83,0.00,,,0.01,,2017-06-23 02:49:00,
2017-06-22 19:54:00,58.2,53.0,29.80,South,180,9.0,-999.0,85,0.00,,,0.01,,2017-06-23 02:54:00,
2017-06-22 19:59:00,58.2,53.0,29.80,WSW,248,7.0,-999.0,85,0.00,,,0.01,,2017-06-23 02:59:00,
2017-06-22 20:05:00,58.5,54.0,29.80,SSW,203,6.0,-999.0,85,0.00,,,0.01,,2017-06-23 03:05:00,
2017-06-22 20:08:00,58.8,54.0,29.80,SW,225,6.0,-999.0,85,0.00,,,0.01,,2017-06-23 03:08:00,
2017-06-22 20:14:00,58.8,53.0,29.80,SSW,203,7.0,-999.0,83,0.00,,,0.01,,2017-06-23 03:14:00,
2017-06-22 20:19:00,59.2,54.0,29.81,SW,225,7.0,-999.0,83,0.00,,,0.01,,2017-06-23 03:19:00,
2017-06-22 20:25:00,59.3,54.0,29.81,West,270,2.0,-999.0,83,0.00,,,0.01,,2017-06-23 03:25:00,
2017-06-22 20:31:00,59.7,54.0,29.80,NNW,338,7.0,-999.0,81,0.00,,,0.01,,2017-06-23 03:31:00,
2017-06-22 20:36:00,59.9,54.0,29.81,SW,225,4.0,-999.0,81,0.00,,,0.01,,2017-06-23 03:36:00,
2017-06-22 20:42:00,60.0,53.0,29.81,NW,315,4.0,-999.0,80,0.00,,,0.01,,2017-06-23 03:42:00,
2017-06-22 20:48:00,60.2,54.0,29.81,SSE,158,9.0,-999.0,80,0.00,,,0.01,,2017-06-23 03:48:00,
2017-06-22 20:53:00,60.3,53.0,29.81,West,270,2.0,-999.0,79,0.00,,,0.01,,2017-06-23 03:53:00,
2017-06-22 20:59:00,60.3,53.0,29.81,West,270,7.0,-999.0,79,0.00,,,0.01,,2017-06-23 03:59:00,
2017-06-22 21:04:00,60.7,54.0,29.81,WSW,248,11.0,-999.0,79,0.00,,,0.01,,2017-06-23 04:04:00,
2017-06-22 21:10:00,60.7,54.0,29.81,West,270,6.0,-999.0,79,0.00,,,0.01,,2017-06-23 04:10:00,
2017-06-22 21:15:00,61.0,54.0,29.81,WSW,248,12.0,-999.0,79,0.00,,,0.01,,2017-06-23 04:15:00,
2017-06-22 21:21:00,60.3,54.0,29.81,SW,225,10.0,-999.0,80,0.00,,,0.01,,2017-06-23 04:21:00,
2017-06-22 21:26:00,59.7,54.0,29.82,SE,135,2.0,-999.0,81,0.00,,,0.01,,2017-06-23 04:26:00,
2017-06-22 21:32:00,59.2,54.0,29.82,SSW,203,5.0,-999.0,83,0.00,,,0.01,,2017-06-23 04:32:00,
2017-06-22 21:37:00,59.0,54.0,29.82,SW,225,4.0,-999.0,83,0.00,,,0.01,,2017-06-23 04:37:00,
2017-06-22 21:43:00,59.0,54.0,29.82,SW,225,8.0,-999.0,83,0.00,,,0.01,,2017-06-23 04:43:00,
2017-06-22 21:48:00,58.8,53.0,29.82,SSW,203,8.0,-999.0,83,0.00,,,0.01,,2017-06-23 04:48:00,
2017-06-22 21:54:00,58.4,54.0,29.83,SW,225,8.0,-999.0,85,0.00,,,0.01,,2017-06-23 04:54:00,
2017-06-22 21:59:00,58.4,54.0,29.83,WSW,248,11.0,-999.0,85,0.00,,,0.01,,2017-06-23 04:59:00,
2017-06-22 22:05:00,58.0,53.0,29.83,West,270,3.0,-999.0,86,0.00,,,0.01,,2017-06-23 05:05:00,
2017-06-22 22:10:00,57.8,53.0,29.83,East,90,6.0,-999.0,86,0.00,,,0.01,,2017-06-23 05:10:00,
2017-06-22 22:16:00,57.5,53.0,29.83,ESE,113,3.0,-999.0,86,0.00,,,0.01,,2017-06-23 05:16:00,
2017-06-22 22:21:00,57.2,53.0,29.84,East,90,6.0,-999.0,88,0.00,,,0.01,,2017-06-23 05:21:00,
2017-06-22 22:27:00,56.7,53.0,29.83,South,180,7.0,-999.0,88,0.00,,,0.01,,2017-06-23 05:27:00,
2017-06-22 22:33:00,56.7,53.0,29.83,SSW,203,5.0,-999.0,90,0.00,,,0.01,,2017-06-23 05:33:00,
2017-06-22 22:39:00,56.7,53.0,29.83,NNE,23,5.0,-999.0,90,0.00,,,0.01,,2017-06-23 05:39:00,
2017-06-22 22:44:00,56.7,53.0,29.83,ESE,113,4.0,-999.0,90,0.00,,,0.01,,2017-06-23 05:44:00,
2017-06-22 22:50:00,56.7,53.0,29.84,SE,135,4.0,-999.0,90,0.00,,,0.01,,2017-06-23 05:50:00,
2017-06-22 22:55:00,56.7,53.0,29.84,East,90,2.0,-999.0,90,0.00,,,0.01,,2017-06-23 05:55:00,
2017-06-22 23:01:00,56.7,53.0,29.84,NNE,23,6.0,-999.0,90,0.00,,,0.01,,2017-06-23 06:01:00,